Regional Weather Roundup
Issued by NWS

Home | Current Version | Previous Version | Text Only | Print | Product List | Glossary On
Versions: 1 2 3 4 5 6 7 8 9 10 11 12 13 14 15 16 17 18 19 20 21 22 23 24 25 26 27 28 29 30 31 32 33 34 35 36 37 38 39 40 41 42 43 44 45 46 47 48 49 50
000
ASUS46 KSEW 280610
RWRWA

WASHINGTON REGIONAL WEATHER ROUNDUP
NATIONAL WEATHER SERVICE SEATTLE WA
1100 PM PDT WED MAY 27 2015

NOTE:"FAIR" INDICATES FEW OR NO CLOUDS BELOW 12,000 FEET WITH NO
SIGNIFICANT WEATHER AND/OR OBSTRUCTIONS TO VISIBILITY.

WAZ505-507>509-280700-
SEATTLE, TACOMA, EVERETT, AND VICINITY

CITY           SKY/WX    TMP DP  RH WIND       PRES   REMARKS
EVERETT        CLEAR     57  52  83 CALM      30.05S
6HR MIN TEMP:  57; 6HR MAX TEMP:  71;

BOEING FIELD   CLEAR     68  51  54 CALM      30.03R
6HR MIN TEMP:  68; 6HR MAX TEMP:  78;

RENTON         CLEAR     65  55  70 N3        30.02S
6HR MIN TEMP:  65; 6HR MAX TEMP:  75;

SEATAC AIRPORT CLEAR     64  53  67 CALM      30.04S
6HR MIN TEMP:  63; 6HR MAX TEMP:  76;

JBLM-MCCHORD   CLEAR     64  56  74 NW2       30.04R
6HR MIN TEMP:  64; 6HR MAX TEMP:  76;

PUYALLUP       FAIR      59  57  94 CALM      30.05R
BREMERTON      CLEAR     55  54  94 CALM      30.07S
6HR MIN TEMP:  55; 6HR MAX TEMP:  75;

JBLM-FT LEWIS  CLEAR     63  55  77 W6        30.04R
6HR MIN TEMP:  63; 6HR MAX TEMP:  76;

TACOMA NARROWS CLEAR     63  52  67 W3        30.05R
6HR MIN TEMP:  63; 6HR MAX TEMP:  76;

$$

WAZ001-503-506-510-514-515-280700-
NORTH INTERIOR

CITY           SKY/WX    TMP DP  RH WIND       PRES   REMARKS
BELLINGHAM     CLEAR     60  55  83 S7        30.02F
6HR MIN TEMP:  59; 6HR MAX TEMP:  73;

FRIDAY HARBOR  CLEAR     51  49  92 SW9       30.04S
6HR MIN TEMP:  51; 6HR MAX TEMP:  66;

EASTSOUND      CLEAR     59  54  82 CALM      30.01S
PORT ANGELES   CLEAR     50  48  93 CALM      30.05S
6HR MIN TEMP:  49; 6HR MAX TEMP:  61;

PORT TOWNSEND  MOCLDY    52  50  93 CALM      30.04S
NAS WHIDBEY    PTCLDY    54  52  93 SW6       30.08S
6HR MIN TEMP:  54; 6HR MAX TEMP:  60;

ARLINGTON      CLEAR     55  48  76 NW5       30.05S
6HR MIN TEMP:  55; 6HR MAX TEMP:  73;

BURLINGTON     CLEAR     54  52  94 CALM      30.04S
$$

WAZ020-022-039-040-504-511-512-280700-
SOUTHWEST INTERIOR

CITY           SKY/WX    TMP DP  RH WIND       PRES   REMARKS
SHELTON        CLEAR     54  51  90 W9        30.04R
6HR MIN TEMP:  54; 6HR MAX TEMP:  75;

OLYMPIA        CLEAR     59  51  75 CALM      30.04R
6HR MIN TEMP:  56; 6HR MAX TEMP:  78;

CHEHALIS       FAIR      59  55  88 CALM      30.05R
KELSO          CLEAR     57  50  77 N5        30.09R
6HR MIN TEMP:  57; 6HR MAX TEMP:  75;

VANCOUVER      CLEAR     65  51  60 CALM      30.02R
6HR MIN TEMP:  65; 6HR MAX TEMP:  79;

SCAPPOOSE, OR  CLEAR     63  52  67 N5        30.01R
6HR MIN TEMP:  63; 6HR MAX TEMP:  80;

PORTLAND, OR   CLEAR     66  52  60 NW7       30.02R
6HR MIN TEMP:  66; 6HR MAX TEMP:  80;

$$

WAZ021-516-517-280700-
WASHINGTON COAST

CITY           SKY/WX    TMP DP  RH WIND       PRES   REMARKS
FORKS          CLOUDY    50  50 100 SW3       30.08R FOG
6HR MIN TEMP:  50; 6HR MAX TEMP:  55;

HOQUIAM        CLOUDY    53  51  93 W8        30.08S
6HR MIN TEMP:  53; 6HR MAX TEMP:  59;

ASTORIA, OR    CLOUDY    54  51  90 W5        30.09R
6HR MIN TEMP:  54; 6HR MAX TEMP:  61;

$$

WAZ019-023-024-040-518-519-280700-
CASCADE MOUNTAINS AND COLUMBIA GORGE

CITY           SKY/WX    TMP DP  RH WIND       PRES   REMARKS
TROUTDALE, OR  CLEAR     66  53  63 W6        30.01R
6HR MIN TEMP:  65; 6HR MAX TEMP:  79;

THE DALLES, OR MOCLDY    72  53  51 NW10      29.96R
6HR MIN TEMP:  72; 6HR MAX TEMP:  85;

$$

WAZ026-027-041>044-520-521-280700-
EAST SLOPES

CITY           SKY/WX    TMP DP  RH WIND       PRES   REMARKS
OMAK           PTCLDY    68  49  50 S7        29.95R
6HR MIN TEMP:  64; 6HR MAX TEMP:  82;

WENATCHEE      CLEAR     70  49  47 NW9       29.96S
6HR MIN TEMP:  69; 6HR MAX TEMP:  84;

ELLENSBURG     CLEAR     64  51  62 NW10      30.00R
6HR MIN TEMP:  64; 6HR MAX TEMP:  83; 6HR PCP: TRACE;

YAKIMA         CLEAR     64  52  64 W5        29.99R
6HR MIN TEMP:  64; 6HR MAX TEMP:  83;

$$

WAZ028-034-035-280700-
COLUMBIA BASIN

CITY           SKY/WX    TMP DP  RH WIND       PRES   REMARKS
EPHRATA        PTCLDY    63  53  70 SW6       29.95S
6HR MIN TEMP:  63; 6HR MAX TEMP:  81;

MOSES LAKE     PTCLDY    66  51  58 S5        29.96S
6HR MIN TEMP:  66; 6HR MAX TEMP:  78; 6HR PCP: TRACE;

PASCO          CLEAR     65  53  65 CALM      29.96R
6HR MIN TEMP:  65; 6HR MAX TEMP:  83;

HERMISTON, OR  CLEAR     62  50  64 S7        29.95R
6HR MIN TEMP:  62; 6HR MAX TEMP:  82;

$$

WAZ036>038-280700-
NORTHEAST WASHINGTON

CITY           SKY/WX    TMP DP  RH WIND       PRES   REMARKS
SPOKANE GEIGER PTCLDY    64  48  56 SW9       30.00R
6HR MIN TEMP:  64; 6HR MAX TEMP:  73;

SPOKANE FELTS  CLEAR     59  50  72 NE5       30.00R
6HR MIN TEMP:  58; 6HR MAX TEMP:  75;

FAIRCHILD AFB  CLEAR     60  49  68 S6        30.00S
6HR MIN TEMP:  59; 6HR MAX TEMP:  73;

COEURDALENE,ID CLEAR     61  50  67 S6        30.00R
6HR MIN TEMP:  57; 6HR MAX TEMP:  72;

DEER PARK      CLEAR     51  48  89 CALM      30.00R
6HR MIN TEMP:  51; 6HR MAX TEMP:  73;

$$

WAZ029>033-280700-
SOUTHEAST WASHINGTON

CITY           SKY/WX    TMP DP  RH WIND       PRES   REMARKS
PULLMAN        CLEAR     55  50  83 E5        30.05R
6HR MIN TEMP:  53; 6HR MAX TEMP:  71; 6HR PCP:  0.01;

LEWISTON, ID   CLEAR     60  50  69 CALM      30.00R
6HR MIN TEMP:  60; 6HR MAX TEMP:  76;

WALLA WALLA    CLEAR     60  50  69 E8        29.98S
6HR MIN TEMP:  60; 6HR MAX TEMP:  76;

PENDLETON, OR  CLEAR     59  48  67 SE7       29.99R
6HR MIN TEMP:  57; 6HR MAX TEMP:  75;

$$


USA.gov is the U.S. government's official web portal to all federal, state and local government web resources and services.